Total_Precipitation_Accumulation
0.00 0.00 0.00 0.00 0.00 0.00 0.00 0.00 0.00 0.00 0.00 0.00 0.00 0.00 0.00 0.00 0.00 0.00 0.00 0.00 0.00 0.00 0.00 0.00 0.00 0.00 0.00 0.01 0.01 0.03 0.05 0.04 0.03 0.04 0.05 0.05 0.05 0.05 0.07 0.09 0.11 0.13 0.14
0.00 0.00 0.00 0.00 0.00 0.00 0.00 0.00 0.00 0.00 0.00 0.00 0.00 0.00 0.00 0.00 0.00 0.00 0.00 0.00 0.00 0.00 0.00 0.00 0.00 0.00 0.00 0.00 0.01 0.01 0.02 0.02 0.03 0.03 0.04 0.06 0.07 0.07 0.07 0.08 0.10 0.11 0.11
0.00 0.00 0.00 0.00 0.00 0.00 0.00 0.00 0.00 0.00 0.00 0.00 0.00 0.00 0.01 0.01 0.01 0.01 0.01 0.01 0.01 0.00 0.00 0.00 0.00 0.01 0.01 0.01 0.01 0.01 0.01 0.01 0.02 0.04 0.04 0.05 0.07 0.08 0.08 0.09 0.09 0.10 0.11
0.00 0.00 0.00 0.00 0.00 0.00 0.00 0.00 0.00 0.00 0.01 0.01 0.02 0.02 0.02 0.02 0.01 0.01 0.01 0.01 0.01 0.01 0.01 0.00 0.01 0.01 0.01 0.01 0.02 0.02 0.03 0.03 0.03 0.04 0.05 0.07 0.07 0.07 0.07 0.07 0.08 0.09 0.10
0.00 0.00 0.00 0.01 0.00 0.00 0.01 0.02 0.02 0.03 0.03 0.03 0.04 0.03 0.02 0.02 0.01 0.01 0.01 0.01 0.01 0.01 0.01 0.01 0.01 0.02 0.03 0.03 0.03 0.04 0.05 0.07 0.07 0.06 0.06 0.07 0.07 0.06 0.06 0.07 0.08 0.09 0.10
0.01 0.01 0.01 0.02 0.01 0.02 0.04 0.06 0.06 0.06 0.04 0.04 0.02 0.01 0.01 0.00 0.00 0.00 0.00 0.00 0.00 0.00 0.00 0.00 0.01 0.02 0.06 0.09 0.09 0.09 0.11 0.13 0.14 0.12 0.09 0.07 0.06 0.07 0.06 0.06 0.07 0.10 0.11
0.06 0.05 0.04 0.05 0.04 0.05 0.04 0.03 0.03 0.02 0.01 0.01 0.01 0.00 0.00 0.00 0.00 0.00 0.00 0.00 0.00 0.00 0.00 0.01 0.01 0.02 0.05 0.10 0.13 0.15 0.16 0.17 0.18 0.17 0.13 0.10 0.10 0.08 0.06 0.04 0.05 0.07 0.08
0.10 0.09 0.09 0.09 0.08 0.06 0.05 0.04 0.03 0.01 0.00 0.00 0.01 0.01 0.00 0.00 0.00 0.00 0.00 0.00 0.00 0.00 0.00 0.00 0.01 0.01 0.01 0.03 0.05 0.09 0.13 0.12 0.12 0.15 0.16 0.13 0.10 0.09 0.06 0.04 0.03 0.03 0.05
0.12 0.12 0.11 0.09 0.07 0.05 0.03 0.03 0.02 0.01 0.01 0.00 0.00 0.01 0.02 0.01 0.00 0.00 0.00 0.00 0.00 0.00 0.00 0.00 0.00 0.00 0.00 0.00 0.01 0.03 0.07 0.09 0.06 0.07 0.11 0.13 0.13 0.11 0.09 0.06 0.04 0.04 0.05
0.08 0.06 0.05 0.04 0.03 0.02 0.01 0.01 0.01 0.01 0.01 0.01 0.01 0.01 0.02 0.02 0.02 0.01 0.00 0.00 0.00 0.00 0.00 0.00 0.00 0.00 0.00 0.00 0.00 0.01 0.02 0.05 0.07 0.07 0.08 0.10 0.11 0.10 0.08 0.06 0.06 0.07 0.07
0.01 0.01 0.01 0.01 0.01 0.01 0.01 0.01 0.01 0.02 0.02 0.02 0.01 0.01 0.01 0.01 0.02 0.04 0.02 0.00 0.00 0.00 0.00 0.00 0.00 0.00 0.00 0.00 0.01 0.01 0.02 0.05 0.07 0.08 0.08 0.07 0.07 0.08 0.07 0.07 0.07 0.07 0.08
0.00 0.00 0.00 0.00 0.01 0.01 0.01 0.02 0.02 0.02 0.03 0.03 0.03 0.03 0.04 0.05 0.05 0.06 0.04 0.02 0.01 0.00 0.00 0.00 0.00 0.00 0.00 0.01 0.02 0.03 0.04 0.05 0.06 0.05 0.06 0.06 0.07 0.08 0.08 0.09 0.11 0.13 0.14
0.00 0.00 0.00 0.00 0.00 0.01 0.01 0.01 0.02 0.02 0.02 0.03 0.04 0.04 0.05 0.05 0.06 0.08 0.09 0.05 0.03 0.01 0.01 0.01 0.01 0.01 0.02 0.04 0.09 0.08 0.09 0.08 0.06 0.04 0.05 0.09 0.11 0.15 0.14 0.15 0.14 0.14 0.14
0.00 0.00 0.00 0.00 0.01 0.01 0.01 0.02 0.02 0.02 0.03 0.05 0.05 0.06 0.07 0.06 0.07 0.10 0.13 0.15 0.12 0.06 0.04 0.03 0.03 0.05 0.10 0.14 0.17 0.12 0.19 0.12 0.08 0.08 0.10 0.16 0.21 0.28 0.26 0.20 0.16 0.17 0.15
0.00 0.00 0.01 0.01 0.01 0.02 0.02 0.04 0.04 0.05 0.06 0.07 0.07 0.07 0.08 0.08 0.09 0.12 0.15 0.22 0.25 0.18 0.11 0.07 0.07 0.11 0.19 0.21 0.23 0.27 0.31 0.20 0.19 0.25 0.25 0.28 0.32 0.42 0.43 0.35 0.27 0.20 0.17
0.01 0.01 0.01 0.02 0.03 0.03 0.05 0.07 0.07 0.07 0.08 0.08 0.08 0.07 0.07 0.08 0.09 0.10 0.12 0.16 0.22 0.25 0.21 0.10 0.08 0.13 0.18 0.19 0.23 0.29 0.29 0.27 0.33 0.55 0.66 0.58 0.53 0.65 0.71 0.57 0.41 0.31 0.25
0.02 0.03 0.03 0.04 0.05 0.06 0.07 0.09 0.09 0.08 0.07 0.06 0.06 0.07 0.07 0.08 0.10 0.11 0.13 0.17 0.20 0.27 0.29 0.16 0.11 0.15 0.20 0.22 0.26 0.31 0.32 0.34 0.45 0.84 1.11 1.30 1.05 0.95 0.98 0.83 0.63 0.44 0.35
0.04 0.04 0.05 0.06 0.07 0.07 0.08 0.09 0.08 0.06 0.07 0.07 0.08 0.10 0.10 0.10 0.11 0.13 0.17 0.20 0.22 0.28 0.36 0.30 0.22 0.27 0.31 0.33 0.42 0.44 0.42 0.38 0.41 0.83 1.23 1.57 1.53 1.31 1.32 1.14 0.93 0.67 0.49
0.05 0.06 0.08 0.09 0.09 0.08 0.07 0.07 0.07 0.07 0.07 0.08 0.10 0.12 0.12 0.15 0.17 0.19 0.26 0.29 0.30 0.32 0.40 0.40 0.34 0.39 0.46 0.53 0.60 0.55 0.44 0.37 0.33 0.64 1.12 1.45 1.63 1.70 1.81 1.67 1.36 0.99 0.71
0.07 0.09 0.09 0.08 0.07 0.06 0.05 0.05 0.05 0.05 0.07 0.09 0.13 0.17 0.20 0.25 0.27 0.30 0.31 0.29 0.31 0.35 0.39 0.44 0.43 0.50 0.56 0.62 0.58 0.55 0.44 0.35 0.33 0.46 0.89 1.40 1.74 1.84 2.05 2.18 1.89 1.38 0.96
0.08 0.08 0.07 0.06 0.05 0.04 0.03 0.03 0.03 0.05 0.08 0.11 0.14 0.16 0.21 0.28 0.31 0.28 0.25 0.24 0.29 0.37 0.39 0.46 0.50 0.50 0.51 0.55 0.50 0.39 0.32 0.29 0.28 0.35 0.53 1.00 1.67 1.97 1.99 2.10 2.06 1.60 1.17
0.07 0.06 0.05 0.04 0.04 0.03 0.03 0.05 0.05 0.06 0.11 0.15 0.17 0.16 0.15 0.17 0.17 0.17 0.22 0.24 0.28 0.40 0.56 0.63 0.53 0.44 0.36 0.32 0.29 0.26 0.27 0.25 0.24 0.21 0.26 0.61 1.22 1.81 1.99 2.01 1.96 1.51 1.12
0.06 0.06 0.05 0.03 0.03 0.03 0.03 0.04 0.05 0.07 0.12 0.17 0.18 0.15 0.10 0.07 0.08 0.09 0.15 0.21 0.29 0.41 0.51 0.65 0.60 0.37 0.33 0.25 0.23 0.26 0.28 0.30 0.27 0.16 0.20 0.46 0.89 1.40 1.68 1.80 1.67 1.25 0.95
0.06 0.05 0.04 0.02 0.03 0.03 0.02 0.02 0.03 0.05 0.09 0.13 0.14 0.12 0.09 0.06 0.08 0.16 0.18 0.19 0.24 0.31 0.38 0.43 0.58 0.44 0.31 0.29 0.27 0.25 0.26 0.29 0.25 0.14 0.15 0.36 0.69 1.06 1.22 1.27 1.26 1.02 0.83
0.06 0.04 0.02 0.02 0.02 0.02 0.01 0.01 0.02 0.03 0.05 0.08 0.09 0.08 0.06 0.05 0.13 0.26 0.30 0.33 0.38 0.44 0.48 0.61 0.75 0.74 0.62 0.54 0.42 0.33 0.28 0.21 0.16 0.13 0.16 0.28 0.49 0.71 0.83 0.86 0.87 0.78 0.67
0.05 0.03 0.01 0.01 0.02 0.01 0.00 0.00 0.01 0.02 0.03 0.03 0.04 0.05 0.06 0.09 0.18 0.32 0.42 0.45 0.48 0.57 0.49 0.54 0.73 0.83 0.72 0.72 0.72 0.52 0.33 0.17 0.12 0.13 0.16 0.20 0.31 0.40 0.55 0.62 0.57 0.52 0.49